Location: Easthampton
(42.2676°N, 72.6690°W)
Time: 11:12:24
(UTC+00:00)

RS-44 - Visible Passes

Search period start: 19 April 2024 00:00
Search period end: 29 April 2024 00:00
Orbit: 1175 x 1510 km, 82.5° (Epoch: 18 April)

Date Brightness Start Highest point End Pass type
(mag) Time Alt. Az. Time Alt. Az. Time Alt. Az.
19 Apr ? 00:14:54 10° SSE 00:23:27 54° E 00:31:42 10° NNE visible
19 Apr ? 02:09:13 10° SW 02:17:09 36° WNW 02:24:51 10° N visible
20 Apr ? 00:38:14 10° S 00:47:07 80° E 00:55:39 10° N visible
20 Apr ? 02:34:44 10° WSW 02:41:26 24° WNW 02:48:00 10° NNW visible
21 Apr ? 01:02:05 10° SSW 01:10:56 71° W 01:19:26 10° N visible
21 Apr ? 03:01:20 10° W 03:05:57 15° WNW 03:10:30 10° NNW visible
22 Apr ? 01:26:28 10° SSW 01:34:54 48° WNW 01:43:02 10° N visible
22 Apr ? 09:28:44 10° NE 09:31:30 12° NE 09:34:13 10° ENE visible
22 Apr ? 23:56:33 10° SSE 00:05:11 60° E 00:13:26 10° NNE visible
23 Apr ? 01:51:27 10° SW 01:59:02 32° WNW 02:06:22 10° N visible
24 Apr ? 00:20:01 10° S 00:28:53 88° E 00:37:21 10° N visible
24 Apr ? 02:17:12 10° WSW 02:23:22 21° WNW 02:29:22 10° NNW visible
25 Apr ? 00:44:01 10° SSW 00:52:45 64° WNW 01:01:03 10° N visible
25 Apr ? 02:44:20 10° W 02:47:55 13° WNW 02:51:27 10° NNW visible
26 Apr ? 01:08:33 10° SW 01:16:44 42° WNW 01:24:34 10° N visible
26 Apr ? 09:09:51 10° NNE 09:13:21 14° ENE 09:16:46 10° E visible
27 Apr ? 01:33:44 10° SW 01:40:55 28° WNW 01:47:50 10° NNW visible
28 Apr ? 00:01:52 10° S 00:10:40 84° W 00:18:59 10° N visible
28 Apr ? 01:59:47 10° WSW 02:05:17 18° WNW 02:10:39 10° NNW visible
